Commit Graph

  • 488d29bb6a
    remove tests zrythm_meson Alexandros Theodotou 2021-02-15 18:55:55 +0000
  • a3674650c5
    do not install Alexandros Theodotou 2021-02-15 18:09:00 +0000
  • ec8ef82d60 fixup! WIP: Switch to Meson David Robillard 2021-01-11 17:18:06 +0100
  • d63c31df0d fixup! WIP: Switch to Meson David Robillard 2021-01-11 17:07:40 +0100
  • ee0a469112 WIP: Switch to Meson David Robillard 2021-01-09 19:17:31 +0100
  • 75b5bc4303 Factor out test suite running to a standalone script David Robillard 2021-01-09 19:17:30 +0100
  • 4791d8dfc7 Add clant configuration David Robillard 2021-01-10 17:00:23 +0100
  • eca8f88f0e Add missing includes David Robillard 2021-01-10 17:00:16 +0100
  • 1425490822 Avoid use of strcpy David Robillard 2021-01-10 17:00:09 +0100
  • 2146e945d2 Only use modern deprecated attributes on clang 7 and newer David Robillard 2021-01-10 19:24:50 +0100
  • 92dc0c4e22 Only use nullability attributes on clang 7 and newer David Robillard 2021-01-10 19:19:00 +0100
  • aabedb5acb Fix plots in README David Robillard 2021-01-09 22:46:49 +0100
  • 7994ec8e1b Only define WIN32_LEAN_AND_MEAN for MSVC David Robillard 2021-01-09 19:50:59 +0100
  • 0b187ad97c Avoid GCC warning about printed string overflow David Robillard 2021-01-09 19:17:29 +0100
  • b3a07044be Avoid GCC warning about potential signed overflow David Robillard 2021-01-09 19:17:28 +0100
  • 7ceba78680 Add missing pure attributes David Robillard 2021-01-09 19:16:02 +0100
  • dc963989ba Fix fallback aligned_alloc() detection David Robillard 2021-01-09 02:11:28 +0100
  • 0ed324754b Fix SERD_DISABLE_DEPRECATED David Robillard 2021-01-09 02:11:00 +0100
  • 17834fd828 Update fallback version David Robillard 2021-01-07 22:29:56 +0100
  • 653ba600b7 Serd 0.30.8 David Robillard 2021-01-07 22:19:47 +0100
  • f07e5b1603 Update autowaf David Robillard 2021-01-07 18:48:31 +0100
  • e9dad4375b Use globally unique Doxygen group names David Robillard 2021-01-07 17:56:08 +0100
  • 39deed9287 Remove unused file David Robillard 2021-01-07 12:02:13 +0100
  • 4bb7046fc3 Only publish documentation on master David Robillard 2021-01-06 23:23:06 +0100
  • f2adb0c205 Switch to LV2 documentation theme David Robillard 2021-01-06 21:50:05 +0100
  • a6fa6c45a4 dox_to_sphinx.py: Emit documentation in groups David Robillard 2021-01-06 21:45:37 +0100
  • 53722d1e02 dox_to_sphinx.py: Clean up whitespace in output David Robillard 2021-01-06 20:44:31 +0100
  • 865a3def10 dox_to_sphinx.py: Fix computeroutput support David Robillard 2021-01-06 20:43:24 +0100
  • 69308321d6 dox_to_sphinx.py: Add support for fancy quotes David Robillard 2021-01-06 20:43:02 +0100
  • afc2c16644 Update date in version output David Robillard 2021-01-02 13:28:20 +0100
  • 0778ae8a95 Use email address instead of website for attribution David Robillard 2021-01-02 13:26:18 +0100
  • 2f0a55007f Use SERD_STATIC instead of SERD_SHARED to control visibility David Robillard 2021-01-02 13:23:00 +0100
  • 4a54d784af Remove the need for a generated configuration header David Robillard 2021-01-01 14:15:49 +0100
  • d101d92694 Format all code with clang-format David Robillard 2020-12-26 19:23:13 +0100
  • 8a93d0b3be Avoid "else" after "break" and "return" David Robillard 2020-12-31 12:37:57 +0100
  • 19d8a055ff Fix documentation page width David Robillard 2020-12-21 18:14:58 +0100
  • 5cb9eaf3d9 Remove old Doxygen configuration David Robillard 2020-12-21 13:57:32 +0100
  • f95f22013d Generate documentation with Sphinx David Robillard 2020-12-20 20:20:07 +0100
  • fabf711348 Fix build on ancient GCC David Robillard 2020-12-18 11:15:04 +0100
  • a89a3dfac5 Add test for attempting to convert a non-file URI to a path David Robillard 2020-12-17 10:17:20 +0100
  • 0ca210bc00 Don't install API man pages David Robillard 2020-12-17 10:10:38 +0100
  • c3e339a0d2 Clean up includes David Robillard 2020-12-15 21:33:49 +0100
  • d3723c7ef9 Suppress new clang-tidy warnings David Robillard 2020-12-15 21:31:24 +0100
  • ea5778afa3 Fix nullable annotations on allocating function return values David Robillard 2020-12-15 21:30:27 +0100
  • aac7b8d830 Fix broken links in documentation David Robillard 2020-11-17 11:13:01 +0100
  • b1991fe876 Port serd_bench.py to argparse David Robillard 2020-11-15 12:52:17 +0100
  • 47cc010e25 Strengthen null annotation on serd_env_get_base_uri() David Robillard 2020-11-15 12:52:00 +0100
  • 72d696f66e Run flake8 on serd_bench.py David Robillard 2020-11-15 12:50:29 +0100
  • 1b8dafe596 Format serd_bench.py with black David Robillard 2020-11-15 12:32:07 +0100
  • 7d1b98ad1b Move benchmark script to scripts subdirectory David Robillard 2020-11-15 12:31:41 +0100
  • 2ddd39e588 Only use aligned_alloc in C11 David Robillard 2020-11-15 12:27:48 +0100
  • 5c1130819c Deprecate serd_uri_to_path() David Robillard 2020-11-14 12:31:02 +0100
  • 2bf875e89f Refuse to write relative URI references to NTriples David Robillard 2020-11-14 11:52:57 +0100
  • 6be4a34047 Simplify abbreviated URI writing code David Robillard 2020-11-14 11:18:42 +0100
  • d4973df795 Make sanitizer failures fatal on CI David Robillard 2020-11-13 15:24:00 +0100
  • 31d5e871cb Do sanitize run on CI in a single job David Robillard 2020-11-13 15:23:15 +0100
  • 18949858d9 Fix test coverage David Robillard 2020-11-13 15:21:43 +0100
  • d63f832e64 Remove tests that pass null to nonnull parameters David Robillard 2020-11-13 15:21:34 +0100
  • ce9ee54f21 Add failure test for unescaped quotes in URIs David Robillard 2020-11-13 15:21:06 +0100
  • 49bee1f121 Remove dead code David Robillard 2020-11-13 15:16:59 +0100
  • 9256bf1de4 Improve documentation David Robillard 2020-11-13 13:27:55 +0100
  • 65d6229274 Simplify writer statement validity checking David Robillard 2020-11-13 12:48:37 +0100
  • e04aa68fb7 Use line comment David Robillard 2020-11-13 12:44:44 +0100
  • f6f04c10eb Suppress simple test output David Robillard 2020-11-13 12:20:47 +0100
  • ccdafafb81 Improve IRI reading performance David Robillard 2020-11-13 12:17:29 +0100
  • 41130751fb Improve documentation summary for SerdEnv David Robillard 2020-11-13 12:10:49 +0100
  • f63257a60c Improve add and chop prefix functions when given empty strings David Robillard 2020-11-13 11:58:17 +0100
  • 353b92d13d Remove use of C character class functions that may use locale David Robillard 2020-11-13 11:47:36 +0100
  • 3558d21c92 Use line comments where appropriate and clean up header David Robillard 2020-11-12 21:07:29 +0100
  • dddc46b13f Allow setting the base URI of an Env to NULL David Robillard 2020-11-12 20:52:23 +0100
  • febc0828f2 Use aligned allocation via C11 or Windows API where possible David Robillard 2020-11-12 20:18:47 +0100
  • beed84b631 Use C11 if possible David Robillard 2020-11-12 20:05:49 +0100
  • a815f33ec3 Relax nullability annotation on allocation functions David Robillard 2020-11-12 13:31:24 +0100
  • 1319a748cb Add missing const qualifiers David Robillard 2020-11-12 13:25:09 +0100
  • d9a475252b Factor out output style selection David Robillard 2020-11-12 13:22:07 +0100
  • 67fcacbb1c Suppress nullability warnings in tests David Robillard 2020-11-12 13:21:38 +0100
  • 844643649e Use built-in abspath() David Robillard 2020-11-12 00:16:55 +0100
  • 793e353941 Set up environment for using serdi as a subproject David Robillard 2020-11-11 20:09:22 +0100
  • bacd257453 Disable coverage on sanitizer CI row David Robillard 2020-11-11 12:37:02 +0100
  • 41b89cc1e4 Fix link errors with sanitizers at the source in autowaf David Robillard 2020-11-11 11:42:31 +0100
  • 19aa10dd3f Fix build as a subproject David Robillard 2020-11-11 00:43:15 +0100
  • fe8a83ecda Clean up attributes in reference documentation David Robillard 2020-11-11 00:16:49 +0100
  • 79d1142252 Add CI row to run clang sanitizers David Robillard 2020-11-10 22:59:44 +0100
  • 9eee20ada8 Add nonnull and nullable attributes to API David Robillard 2020-11-10 22:58:12 +0100
  • 48635c1e2c Fix potential memory error when serialising URIs David Robillard 2020-11-10 22:04:24 +0100
  • 2ce76b31f0 Fix memory leak in chunk reading test David Robillard 2020-11-10 20:58:07 +0100
  • bafa091fad Add const, pure, and malloc function attributes David Robillard 2020-11-10 15:44:37 +0100
  • f820212f2a Simplify visibility boilerplate David Robillard 2020-11-10 15:35:07 +0100
  • a9efbbbbbd Fix warnings in MinGW build David Robillard 2020-11-10 13:19:45 +0100
  • 2378c1cfbc Fix header installation David Robillard 2020-11-10 10:14:40 +0100
  • a6b0d55b4d Define WIN32_LEAN_AND_MEAN David Robillard 2020-11-10 09:57:49 +0100
  • b5fd72d61a Add a test for reading strings with no trailing newline David Robillard 2020-11-09 19:34:03 +0100
  • 6bd53f5822 Use separate clang-tidy configurations for implementation and tests David Robillard 2020-11-09 19:23:08 +0100
  • 81832c4151 Split out reader and writer tests David Robillard 2020-11-09 18:44:40 +0100
  • 3dc112f6f5 Split out string tests David Robillard 2020-11-09 18:30:58 +0100
  • eae480cfc9 Split out URI tests David Robillard 2020-11-09 17:22:12 +0100
  • f6d870d67f Rename unit tests to start with a consistent prefix David Robillard 2020-11-09 12:29:47 +0100
  • d5f8dc60b7 Fix clang-tidy hicpp-signed-bitwise warnings in header David Robillard 2020-11-09 12:24:49 +0100
  • 0f2ec1ed73 Check headers with stricter clang-tidy settings David Robillard 2020-11-09 12:23:57 +0100
  • 59307f4af4 Move header to conventional include directory David Robillard 2020-11-09 12:21:42 +0100